Zurück zum Katalog

STARLINK-37586

AktivKommunikationVLEO
NORAD 69521·PAYLOAD·🇺🇸 United States

Gestartet Jun 12, 2026 von Cape Canaveral Space Force Station

Loading…

Nächste Überflüge (nächste 24 Stunden)

TLE

AktuellSource: CelesTrak SupGP

Epoche: Sep 15, 2026, 02:53 UTC

1 69521C 26133P   26258.12062500 -.00024643  00000+0 -72798-3 0  2581
2 69521  53.1565 254.7440 0001205  88.9359 127.0154 15.34406802    10

Verfolge STARLINK-37586 in Echtzeit mit AllMySat

Download on the App Store